Regional Weather Roundup
Issued by NWS Cleveland, OH

Home | Current Version | Previous Version | Text Only | Print | Product List | Glossary Off
Versions: 1 2 3 4 5 6 7 8 9 10 11 12 13 14 15 16 17 18 19 20 21 22 23 24 25 26 27 28 29 30 31 32 33 34 35 36 37 38 39 40 41 42 43 44 45 46 47 48 49 50

000
ASUS41 KCLE 272210
RWRCLE
OHIO REGIONAL WEATHER ROUNDUP
NATIONAL WEATHER SERVICE CLEVELAND, OH
600 PM EDT FRI MAR 27 2015

NOTE: "FAIR" INDICATES FEW OR NO CLOUDS BELOW 12,000 FEET WITH NO
SIGNIFICANT WEATHER AND/OR OBSTRUCTIONS TO VISIBILITY.

OHZ001>008-015>018-024>027-034-035-043-044-272300-
   NORTHWEST OHIO

CITY           SKY/WX    TMP DP  RH WIND       PRES   REMARKS
DEFIANCE       PTSUNNY   30   6  36 N13       30.04R WCI  20
FINDLAY        CLOUDY    28  10  46 NW12      30.02S WCI  18
TOLEDO EXPRESS CLOUDY    26   8  46 N10       30.04R WCI  16
TOLEDO EXEC    CLOUDY    27  12  53 NW14      30.05R WCI  16
LIMA           CLOUDY    29  12  49 NW13      30.01F WCI  19
$$

OHZ009>014-019>023-028>033-038-089-272300-
   NORTHEAST OHIO

CITY           SKY/WX    TMP DP  RH WIND       PRES   REMARKS
CLE-HOPKINS    LGT SNOW  24  18  77 N17G24    30.03R WCI  11
CLE-LAKEFRONT  CLOUDY    26  17  68 N14       30.01R WCI  14
CUY CO. ARPT   FLURRIES  25  21  86 N16G23    30.00R WCI  12
LORAIN-ELYRIA  LGT SNOW  23  20  88 NE12      30.01R VSB 3/4 WCI  12
ASHTABULA      LGT SNOW  23  16  74 NW16G25   29.98R WCI  10
AKRON-CANTON   LGT SNOW  25  19  78 N10       29.94R VSB 1   WCI  15
WOOSTER        CLOUDY    25  19  78 N13       29.97R WCI  14
MANSFIELD      CLOUDY    24  17  74 NW12      29.97R WCI  13
YOUNGSTOWN     LGT SNOW  25  20  81 NW17      29.92S WCI  12
$$

OHZ042-051>053-060>062-070>072-077>081-272300-
  SOUTHWEST OHIO

CITY           SKY/WX    TMP DP  RH WIND       PRES   REMARKS
CINC-COVINGTON CLOUDY    33  16  49 N13       30.02R WCI  24
CINC-LUNKEN    CLOUDY    33  16  49 NW10      30.05R WCI  25
HAMILTON       CLOUDY    32  16  51 N13       30.06R WCI  22
DAYTON         CLOUDY    30  14  51 N15       30.02S WCI  19
WRIGHT-PAT AFB CLOUDY    29  15  55 NW15G21   30.02R WCI  18
DAYTON GENERAL CLOUDY    30  14  51 NW12      30.01R WCI  20
WILMINGTON     CLOUDY    29  14  53 NW15      30.00R WCI  18
$$

OHZ036-037-039>041-045>050-054>059-063>069-073>076-082>088-272300-
  CENTRAL AND SOUTHEAST OHIO

CITY           SKY/WX    TMP DP  RH WIND       PRES   REMARKS
COLUMBUS       CLOUDY    29  15  56 NW16      29.99R WCI  17
OSU AIRPORT    CLOUDY    27  13  55 N16       30.00R WCI  15
BOLTON FIELD   CLOUDY    28  16  59 N14G20    30.00R WCI  17
RICKENBACK AFB CLOUDY    30  15  53 NW12G17   30.00R WCI  20
NEWARK         CLOUDY    29  18  63 NW13      29.98R WCI  19
MARION         CLOUDY    25  19  78 NW13      30.01R WCI  14
LANCASTER      CLOUDY    30  17  58 NW15      29.99R WCI  19
ZANESVILLE     CLOUDY    29  17  61 NW13      29.96R WCI  19
NEW PHILLY     CLOUDY    30  16  56 NW13      29.96R WCI  20
$$



USA.gov is the U.S. government's official web portal to all federal, state and local government web resources and services.